Pocatello, ID

9:15 AM MDT on August 22, 2017 (GMT -0600)
Pocatello Regional

Weather History for KPIH - January, 2013

Change the Weather History Date:

Sunday, January 13, 2013

  Actual Average Record
Temperature  
Mean Temperature -4 °F 24 °F  
Max Temperature 6 °F 32 °F 52 °F (1953)
Min Temperature -15 °F 16 °F -19 °F (1964)
Degree Days  
Heating Degree Days 69 41  
Month to date heating degree days 702 533  
Since 1 July heating degree days 3259 3518  
Cooling Degree Days 0 0  
Month to date cooling degree days 0 0  
Year to date cooling degree days 0 0  
Moisture  
Dew Point -8 °F    
Average Humidity 85    
Maximum Humidity 95    
Minimum Humidity 75    
Precipitation  
Precipitation T in 0.03 in 0.66 in (1980)
Month to date precipitation 0.21 0.46  
Year to date precipitation 0.21 0.46  
Snow  
Snow T in - - ()
Month to date snowfall 3.2  
Since 1 July snowfall 22.8  
Snow Depth 5.00 in    
Sea Level Pressure  
Sea Level Pressure 30.33 in    
Wind  
Wind Speed 2 mph (WNW)    
Max Wind Speed 7 mph    
Max Gust Speed 8 mph    
Visibility 5 miles    
Events Fog , Snow    
T = Trace of Precipitation, MM = Missing Value Source: NWS Daily Summary

Daily Weather History Graph

Daily Weather History Graph

Search for Another Location

Airport or City:

Trip Planner

Search our weather history database for the weather conditions in past years. The results will help you decide how hot, cold, wet, or windy it might be!

Date:

Astronomy

Jan. 13, 2013 Rise Set
Actual Time 7:59 AM MST 5:19 PM MST
Civil Twilight 7:27 AM MST 5:51 PM MST
Nautical Twilight 6:52 AM MST 6:26 PM MST
Astronomical Twilight 6:18 AM MST 7:00 PM MST
Moon 8:55 AM MST (1/13) 8:07 PM MST (1/13)
Length of Visible Light 10h 23m
Length of Day
9h 20m
Waxing Crescent, 5% of the Moon is Illuminated
Jan 13
Waxing Crescent
Jan 18
First Quarter
Jan 26
Full
Feb 3
Last Quarter
Feb 10
New

Hourly Weather History & Observations

Time (MST) Temp. Windchill Dew Point Humidity Pressure Visibility Wind Dir Wind Speed Gust Speed Precip Events Conditions
12:00 AM 3.2 °F - -0.4 °F 85% 30.11 in 3.0 mi Calm Calm - 0.00 in Snow Light Snow
12:31 AM 3.2 °F - -0.4 °F 85% 30.11 in 5.0 mi Calm Calm - 0.00 in Snow Light Snow
12:40 AM 1.4 °F - -0.4 °F 92% 30.11 in 4.0 mi Calm Calm - 0.00 in Snow Light Snow
12:53 AM 1.9 °F - -2.0 °F 83% 30.35 in 7.0 mi Calm Calm - 0.00 in   Scattered Clouds
1:31 AM -2.2 °F - -4.0 °F 92% 30.11 in 1.5 mi Calm Calm - N/A   Mostly Cloudy
1:40 AM -0.4 °F - -2.2 °F 92% 30.12 in 0.8 mi Calm Calm - N/A   Scattered Clouds
1:48 AM -0.4 °F -8.3 °F -2.2 °F 92% 30.12 in 1.0 mi WNW 3.5 mph - N/A   Scattered Clouds
1:53 AM -6.0 °F -14.7 °F -7.1 °F 95% 30.38 in 0.8 mi WNW 3.5 mph - N/A   Mostly Cloudy
2:00 AM -5.8 °F - -7.6 °F 92% 30.11 in 2.0 mi Calm Calm - N/A   Mostly Cloudy
2:05 AM -5.8 °F - -7.6 °F 92% 30.12 in 4.0 mi Calm Calm - N/A   Mostly Cloudy
2:24 AM -4.0 °F -12.4 °F -7.6 °F 85% 30.12 in 8.0 mi West 3.5 mph - N/A   Overcast
2:45 AM -7.6 °F -18.8 °F -11.2 °F 84% 30.13 in 3.0 mi West 4.6 mph - N/A   Mostly Cloudy
2:50 AM -7.6 °F -18.8 °F -11.2 °F 84% 30.13 in 2.5 mi WNW 4.6 mph - N/A   Scattered Clouds
2:53 AM -8.0 °F -19.2 °F -11.0 °F 86% 30.40 in 2.5 mi NW 4.6 mph - N/A   Scattered Clouds
3:00 AM -9.4 °F -20.9 °F -11.2 °F 92% 30.13 in 7.0 mi NW 4.6 mph - N/A   Partly Cloudy
3:29 AM -7.6 °F - -11.2 °F 84% 30.13 in 10.0 mi Calm Calm - N/A   Mostly Cloudy
3:53 AM -6.0 °F - -11.0 °F 79% 30.39 in 10.0 mi Calm Calm - N/A   Overcast
4:53 AM -9.9 °F -21.5 °F -14.1 °F 82% 30.40 in 10.0 mi NW 4.6 mph - N/A   Overcast
5:53 AM -7.1 °F - -11.9 °F 79% 30.40 in 0.5 mi Calm Calm - N/A   Haze
6:27 AM -9.4 °F - -13.0 °F 84% 30.14 in 0.2 mi Calm Calm - N/A Fog Light Freezing Fog
6:53 AM -7.1 °F - -9.9 °F 87% 30.41 in 0.2 mi Calm Calm - N/A Fog Light Freezing Fog
7:53 AM -7.1 °F - -9.9 °F 87% 30.45 in 0.2 mi Calm Calm - N/A Fog Light Freezing Fog
8:53 AM -5.1 °F -13.6 °F -8.0 °F 87% 30.46 in 2.5 mi ESE 3.5 mph - N/A   Overcast
9:53 AM -2.0 °F -10.1 °F -6.0 °F 83% 30.45 in 2.5 mi North 3.5 mph - N/A   Overcast
10:09 AM -0.4 °F -10.4 °F -5.8 °F 78% 30.19 in 4.0 mi North 4.6 mph - N/A   Overcast
10:53 AM -0.0 °F - -4.0 °F 83% 30.46 in 6.0 mi Calm Calm - N/A   Mostly Cloudy
11:53 AM 1.0 °F - -0.9 °F 91% 30.45 in 6.0 mi Calm Calm - N/A   Mostly Cloudy
12:53 PM 3.9 °F - -0.9 °F 80% 30.43 in 6.0 mi Calm Calm - N/A   Haze
1:46 PM 5.0 °F - -2.2 °F 72% 30.18 in 10.0 mi Calm Calm - N/A   Scattered Clouds
1:53 PM 3.9 °F -3.4 °F -2.0 °F 76% 30.46 in 7.0 mi WSW 3.5 mph - N/A   Scattered Clouds
2:53 PM 1.9 °F - -2.9 °F 80% 30.50 in 10.0 mi Calm Calm - N/A   Partly Cloudy
3:53 PM 1.9 °F -5.6 °F -2.9 °F 80% 30.50 in 10.0 mi WSW 3.5 mph - N/A   Partly Cloudy
4:53 PM -0.9 °F -8.9 °F -6.0 °F 79% 30.53 in 10.0 mi WSW 3.5 mph - N/A   Clear
5:53 PM -2.9 °F -11.2 °F -7.1 °F 82% 30.53 in 9.0 mi SSW 3.5 mph - N/A   Clear
6:53 PM -8.0 °F -16.9 °F -11.9 °F 83% 30.56 in 3.0 mi SSW 3.5 mph - N/A   Scattered Clouds
7:53 PM -7.1 °F -15.9 °F -11.0 °F 83% 30.56 in 10.0 mi South 3.5 mph - N/A   Partly Cloudy
8:53 PM -9.0 °F - -15.0 °F 75% 30.56 in 10.0 mi Calm Calm - N/A   Partly Cloudy
9:53 PM -13.0 °F - -18.0 °F 78% 30.57 in 9.0 mi Calm Calm - N/A   Scattered Clouds
10:01 PM -13.0 °F - -16.6 °F 84% 30.23 in 8.0 mi Calm Calm - N/A   Mostly Cloudy
10:29 PM -9.4 °F -18.6 °F -13.0 °F 84% 30.24 in 1.5 mi North 3.5 mph - N/A   Overcast
10:39 PM -7.6 °F - -11.2 °F 84% 30.24 in 0.5 mi Calm Calm - N/A Fog Light Freezing Fog
10:53 PM -7.6 °F - -11.2 °F 84% 30.24 in 1.8 mi Calm Calm - N/A   Overcast
10:56 PM -7.6 °F - -11.2 °F 84% 30.24 in 3.0 mi Calm Calm - N/A   Overcast
11:53 PM -4.0 °F - -8.0 °F 83% 30.53 in 7.0 mi Calm Calm - N/A   Overcast